Weather History for Rutherfordton, NC

Change the Weather History Date:

Tuesday, January 15, 2013

  Actual Average (KAVL) Record (KAVL)
Temperature  
Mean Temperature 48 °F 37 °F  
Max Temperature 55 °F 47 °F 74 °F (1942)
Min Temperature 42 °F 26 °F 2 °F (1912)
Degree Days  
Heating Degree Days 16 28  
Month to date heating degree days 420  
Since 1 July heating degree days 2081  
Cooling Degree Days 0 0  
Month to date cooling degree days 0  
Year to date cooling degree days 0  
Moisture  
Dew Point 48 °F    
Average Humidity 98    
Maximum Humidity 100    
Minimum Humidity 91    
Precipitation  
Precipitation 0.79 in 0.12 in 1.50 in (1873)
Month to date precipitation 1.72  
Year to date precipitation 1.72  
Snow  
Snow 0.00 in 0.10 in 7.50 in (1966)
Month to date snowfall 1.9  
Since 1 July snowfall 2.9  
Snow Depth -    
Sea Level Pressure  
Sea Level Pressure 30.12 in    
Wind  
Wind Speed 2 mph (NE)    
Max Wind Speed 7 mph    
Max Gust Speed -    
Visibility 6 miles    
Events Rain    
T = Trace of Precipitation, MM = Missing Value Source: NWS Daily Summary

Daily Weather History Graph

Daily Weather History Graph

Search for Another Location

Airport:

Trip Planner

Search our weather history database for the weather conditions in past years. The results will help you decide how hot, cold, wet, or windy it might be!

Date:

Astronomy

Jan. 15, 2013 Rise Set
Actual Time 7:36 AM EST 5:38 PM EST
Civil Twilight 7:08 AM EST 6:06 PM EST
Nautical Twilight 6:37 AM EST 6:37 PM EST
Astronomical Twilight 6:06 AM EST 7:08 PM EST
Moon 9:52 AM EST (1/15) 10:14 PM EST (1/15)
Length of Visible Light 10h 57m
Length of Day
10h 02m
Waxing Crescent, 19% of the Moon is Illuminated
Jan 15
Waxing Crescent
Jan 18
First Quarter
Jan 26
Full
Feb 3
Last Quarter
Feb 10
New

Hourly Weather History & Observations

Time (EST) Temp. Windchill Dew Point Humidity Pressure Visibility Wind Dir Wind Speed Gust Speed Precip Events Conditions
12:15 AM 55.8 °F - 55.4 °F 99% 30.14 in 10.0 mi Calm Calm - N/A   Overcast
12:35 AM 55.4 °F - 54.5 °F 97% 30.13 in 10.0 mi Calm Calm - N/A   Overcast
12:55 AM 54.7 °F - 54.5 °F 99% 30.13 in 10.0 mi Calm Calm - N/A   Overcast
1:15 AM 54.5 °F - 53.6 °F 97% 30.13 in 10.0 mi NNW 3.5 mph - N/A   Overcast
1:35 AM 54.7 °F - 52.0 °F 91% 30.13 in 10.0 mi Calm Calm - N/A   Overcast
1:55 AM 54.1 °F - 51.4 °F 91% 30.13 in 10.0 mi Calm Calm - N/A Rain Light Rain
2:15 AM 53.6 °F - 52.0 °F 94% 30.13 in 7.0 mi Calm Calm - N/A Rain Rain
2:35 AM 53.1 °F - 51.6 °F 95% 30.13 in 4.0 mi Calm Calm - 0.01 in   Drizzle
2:55 AM 52.7 °F - 51.8 °F 97% 30.13 in 4.0 mi Calm Calm - 0.02 in   Heavy Drizzle
3:15 AM 52.2 °F - 51.8 °F 99% 30.13 in 4.0 mi NNW 5.8 mph - 0.01 in   Drizzle
3:35 AM 52.3 °F - 52.2 °F 99% 30.12 in 3.0 mi Calm Calm - 0.04 in Rain Heavy Rain
3:55 AM 52.7 °F - 52.7 °F 100% 30.11 in 4.0 mi Calm Calm - 0.07 in   Heavy Drizzle
4:15 AM 52.7 °F - 52.7 °F 100% 30.11 in 4.0 mi North 3.5 mph - 0.01 in   Drizzle
4:35 AM 52.9 °F - 52.7 °F 99% 30.11 in 3.0 mi NNW 4.6 mph - 0.01 in   Drizzle
4:55 AM 53.1 °F - 53.1 °F 100% 30.09 in 2.5 mi NNE 3.5 mph - 0.02 in   Heavy Drizzle
5:15 AM 53.2 °F - 53.1 °F 99% 30.10 in 3.0 mi Calm Calm - N/A   Drizzle
5:55 AM 52.9 °F - 52.9 °F 100% 30.10 in 3.0 mi East 3.5 mph - 0.03 in   Heavy Drizzle
6:15 AM 52.3 °F - 52.2 °F 99% 30.11 in 3.0 mi Calm Calm - 0.01 in   Heavy Drizzle
6:35 AM 52.5 °F - 52.3 °F 99% 30.12 in 4.0 mi Calm Calm - 0.02 in   Heavy Drizzle
6:55 AM 51.4 °F - 51.1 °F 99% 30.14 in 4.0 mi North 4.6 mph - 0.04 in Rain Heavy Rain
7:15 AM 51.4 °F - 51.1 °F 99% 30.14 in 3.0 mi ENE 3.5 mph - 0.01 in   Heavy Drizzle
7:35 AM 51.1 °F - 50.7 °F 99% 30.14 in 7.0 mi NE 3.5 mph - 0.03 in   Light Drizzle
7:55 AM 51.1 °F - 50.5 °F 98% 30.15 in 7.0 mi Calm Calm - 0.03 in Rain Rain
8:15 AM 50.9 °F - 50.4 °F 98% 30.16 in 5.0 mi NNE 3.5 mph - 0.02 in Rain Rain
8:35 AM 50.9 °F - 50.2 °F 97% 30.17 in 4.0 mi NNE 3.5 mph - 0.05 in Rain Rain
8:55 AM 50.9 °F - 50.5 °F 99% 30.17 in 7.0 mi Calm Calm - 0.07 in Rain Light Rain
9:15 AM 50.9 °F - 50.2 °F 97% 30.17 in 7.0 mi NNE 3.5 mph - 0.01 in Rain Light Rain
9:35 AM 50.9 °F - 50.2 °F 97% 30.17 in 7.0 mi Calm Calm - 0.02 in Rain Light Rain
9:55 AM 50.9 °F - 50.2 °F 97% 30.17 in 10.0 mi Calm Calm - 0.03 in Rain Rain
10:15 AM 51.1 °F - 50.4 °F 97% 30.17 in 5.0 mi Calm Calm - 0.01 in Rain Rain
10:35 AM 50.9 °F - 50.2 °F 97% 30.17 in 10.0 mi Calm Calm - 0.01 in Rain Rain
10:55 AM 50.5 °F - 49.6 °F 97% 30.17 in 10.0 mi East 3.5 mph - 0.02 in Rain Light Rain
11:15 AM 50.2 °F - 49.5 °F 97% 30.17 in 5.0 mi East 5.8 mph - 0.02 in Rain Light Rain
11:35 AM 50.0 °F - 49.5 °F 98% 30.16 in 7.0 mi East 4.6 mph - 0.03 in Rain Light Rain
11:55 AM 49.6 °F - 49.1 °F 98% 30.15 in 5.0 mi East 3.5 mph - 0.04 in   Drizzle
12:15 PM 49.1 °F - 48.4 °F 97% 30.14 in 7.0 mi East 3.5 mph - N/A   Drizzle
12:35 PM 48.7 °F - 48.2 °F 98% 30.13 in 4.0 mi East 4.6 mph - 0.01 in   Drizzle
12:55 PM 48.4 °F - 47.5 °F 97% 30.13 in 4.0 mi East 4.6 mph - 0.01 in Rain Light Rain
1:15 PM 48.4 °F - 47.8 °F 98% 30.12 in 3.0 mi East 4.6 mph - N/A   Drizzle
1:35 PM 48.2 °F - 47.7 °F 98% 30.11 in 4.0 mi East 4.6 mph - 0.02 in Rain Rain
1:55 PM 48.4 °F - 47.8 °F 98% 30.10 in 5.0 mi East 4.6 mph - 0.03 in Rain Rain
2:15 PM 48.2 °F - 47.5 °F 97% 30.10 in 5.0 mi East 4.6 mph - N/A Rain Light Rain
2:35 PM 48.2 °F - 47.5 °F 97% 30.10 in 5.0 mi East 3.5 mph - 0.01 in   Drizzle
2:55 PM 47.8 °F - 47.3 °F 98% 30.10 in 3.0 mi ENE 4.6 mph - 0.02 in Rain Light Rain
3:15 PM 47.7 °F - 47.1 °F 98% 30.09 in 7.0 mi East 4.6 mph - N/A   Drizzle
3:35 PM 47.3 °F - 46.6 °F 97% 30.11 in 5.0 mi East 3.5 mph - N/A   Drizzle
3:55 PM 47.3 °F - 46.8 °F 98% 30.10 in 4.0 mi Calm Calm - 0.01 in   Heavy Drizzle
4:15 PM 47.3 °F - 46.9 °F 99% 30.10 in 3.0 mi Calm Calm - 0.01 in   Heavy Drizzle
4:35 PM 47.1 °F - 46.6 °F 98% 30.11 in 3.0 mi NNE 5.8 mph - 0.03 in   Heavy Drizzle
4:55 PM 46.4 °F 42.9 °F 45.5 °F 97% 30.11 in 3.0 mi NE 6.9 mph - 0.06 in Rain Rain
5:15 PM 46.0 °F 43.1 °F 45.1 °F 97% 30.11 in 4.0 mi NNE 5.8 mph - 0.03 in Rain Heavy Rain
5:35 PM 45.7 °F 43.4 °F 45.0 °F 97% 30.11 in 5.0 mi NNE 4.6 mph - 0.07 in Rain Rain
5:55 PM 45.5 °F 44.2 °F 44.6 °F 97% 30.12 in 5.0 mi NE 3.5 mph - 0.10 in Rain Rain
6:15 PM 45.5 °F 44.2 °F 44.8 °F 97% 30.12 in 7.0 mi North 3.5 mph - N/A   Drizzle
6:35 PM 45.5 °F 43.2 °F 44.8 °F 97% 30.12 in 7.0 mi NE 4.6 mph - 0.02 in Rain Rain
6:55 PM 45.1 °F 42.0 °F 44.6 °F 98% 30.12 in 5.0 mi NNE 5.8 mph - 0.03 in   Heavy Drizzle
7:15 PM 44.8 °F 41.6 °F 44.1 °F 97% 30.12 in 5.0 mi North 5.8 mph - 0.02 in Rain Heavy Rain
7:35 PM 44.6 °F 42.2 °F 44.1 °F 98% 30.12 in 5.0 mi NNE 4.6 mph - 0.03 in   Heavy Drizzle
7:55 PM 44.6 °F 42.2 °F 43.9 °F 97% 30.11 in 5.0 mi NNE 4.6 mph - 0.04 in   Drizzle
8:15 PM 44.2 °F 42.7 °F 43.7 °F 98% 30.10 in 5.0 mi NE 3.5 mph - 0.01 in Rain Heavy Rain
8:35 PM 44.1 °F 42.5 °F 43.7 °F 99% 30.09 in 7.0 mi NE 3.5 mph - 0.02 in   Drizzle
8:55 PM 43.9 °F 41.3 °F 43.3 °F 98% 30.09 in 7.0 mi NE 4.6 mph - 0.03 in   Drizzle
9:15 PM 43.7 °F 40.3 °F 42.8 °F 97% 30.08 in 10.0 mi NNE 5.8 mph - N/A Rain Rain
9:35 PM 43.7 °F - 43.0 °F 97% 30.08 in 10.0 mi Calm Calm - 0.01 in   Drizzle
9:55 PM 43.7 °F 42.1 °F 43.0 °F 97% 30.08 in 7.0 mi North 3.5 mph - 0.01 in   Drizzle
10:15 PM 43.7 °F 42.1 °F 43.0 °F 97% 30.09 in 5.0 mi NW 3.5 mph - 0.02 in Rain Heavy Rain
10:35 PM 43.0 °F 41.3 °F 42.8 °F 99% 30.08 in 5.0 mi North 3.5 mph - 0.04 in   Heavy Drizzle
10:55 PM 42.8 °F - 42.4 °F 99% 30.08 in 7.0 mi Calm Calm - 0.06 in Rain Rain
11:15 PM 42.8 °F - 42.4 °F 99% 30.07 in 5.0 mi Calm Calm - 0.01 in   Drizzle
11:35 PM 42.8 °F 41.1 °F 42.3 °F 98% 30.07 in 10.0 mi NE 3.5 mph - 0.01 in   Light Drizzle
11:55 PM 43.0 °F - 42.3 °F 97% 30.07 in 7.0 mi Calm Calm - 0.02 in Rain Heavy Rain